TimeCST,TemperatureF,Dew PointF,Humidity,Sea Level PressureIn,VisibilityMPH,Wind Direction,Wind SpeedMPH,Gust SpeedMPH,PrecipitationIn,Events,Conditions,WindDirDegrees,DateUTC
12:15 AM,24.8,23.0,93,30.08,10.0,NW,10.4,-,N/A,,Overcast,310,2012-11-27 06:15:00
12:35 AM,24.8,23.0,93,30.07,10.0,WNW,12.7,-,N/A,,Overcast,300,2012-11-27 06:35:00
12:55 AM,24.8,23.0,93,30.07,10.0,WNW,9.2,-,N/A,,Overcast,300,2012-11-27 06:55:00
1:15 AM,23.0,23.0,100,30.06,10.0,NNW,8.1,-,N/A,,Overcast,330,2012-11-27 07:15:00
1:55 AM,23.0,23.0,100,30.05,10.0,NNW,4.6,-,N/A,,Overcast,330,2012-11-27 07:55:00
2:15 AM,19.4,19.4,100,30.05,10.0,SW,3.5,-,N/A,,Overcast,220,2012-11-27 08:15:00
2:35 AM,19.4,19.4,100,30.06,10.0,North,12.7,-,N/A,,Overcast,350,2012-11-27 08:35:00
2:55 AM,19.4,19.4,100,30.07,10.0,North,13.8,-,N/A,,Overcast,350,2012-11-27 08:55:00
3:15 AM,17.6,17.6,100,30.07,10.0,NNW,12.7,-,N/A,,Overcast,340,2012-11-27 09:15:00
3:35 AM,17.6,17.6,100,30.06,10.0,North,8.1,-,N/A,,Overcast,350,2012-11-27 09:35:00
3:55 AM,15.8,15.8,100,30.07,10.0,North,10.4,-,N/A,,Overcast,350,2012-11-27 09:55:00
4:35 AM,15.8,15.8,100,30.06,10.0,North,9.2,-,N/A,,Overcast,350,2012-11-27 10:35:00
4:55 AM,15.8,15.8,100,30.06,10.0,North,11.5,-,N/A,,Overcast,350,2012-11-27 10:55:00
5:15 AM,15.8,14.0,93,30.07,10.0,North,9.2,-,N/A,,Overcast,350,2012-11-27 11:15:00
6:15 AM,14.0,14.0,100,30.06,10.0,NNW,8.1,-,N/A,,Overcast,330,2012-11-27 12:15:00
6:35 AM,14.0,14.0,100,30.05,10.0,NNW,6.9,-,N/A,,Overcast,330,2012-11-27 12:35:00
6:55 AM,14.0,14.0,100,30.06,10.0,NNW,5.8,-,N/A,,Overcast,340,2012-11-27 12:55:00
7:15 AM,14.0,14.0,100,30.06,10.0,NNW,6.9,-,N/A,,Overcast,340,2012-11-27 13:15:00
7:35 AM,15.8,15.8,100,30.07,10.0,NNW,6.9,-,N/A,,Overcast,340,2012-11-27 13:35:00
7:55 AM,15.8,15.8,100,30.06,10.0,North,4.6,-,N/A,,Overcast,350,2012-11-27 13:55:00
8:15 AM,15.8,15.8,100,30.08,10.0,NNW,10.4,-,N/A,,Overcast,340,2012-11-27 14:15:00
8:35 AM,14.0,14.0,100,30.08,10.0,North,10.4,-,N/A,Snow,Light Snow,350,2012-11-27 14:35:00
8:55 AM,14.0,12.2,93,30.08,9.0,North,10.4,-,N/A,Snow,Light Snow,350,2012-11-27 14:55:00
9:15 AM,14.0,12.2,93,30.10,3.0,North,10.4,-,0.01,Snow,Light Snow,350,2012-11-27 15:15:00
9:35 AM,14.0,12.2,93,30.09,4.0,NNW,5.8,-,0.09,Snow,Light Snow,340,2012-11-27 15:35:00
9:55 AM,14.0,12.2,93,30.09,9.0,NNW,5.8,-,0.10,Snow,Light Snow,340,2012-11-27 15:55:00
10:15 AM,14.0,12.2,93,30.09,8.0,NNW,9.2,-,N/A,Snow,Light Snow,340,2012-11-27 16:15:00
10:35 AM,14.0,14.0,100,30.10,10.0,NNW,6.9,-,N/A,Snow,Light Snow,340,2012-11-27 16:35:00
10:55 AM,15.8,14.0,93,30.10,6.0,NNW,5.8,-,0.03,Snow,Light Snow,330,2012-11-27 16:55:00
11:15 AM,15.8,14.0,93,30.10,2.5,NNE,3.5,-,0.04,Snow,Light Snow,30,2012-11-27 17:15:00
11:35 AM,15.8,14.0,93,30.11,3.0,North,3.5,-,0.10,Snow,Light Snow,10,2012-11-27 17:35:00
11:55 AM,15.8,15.8,100,30.11,5.0,NNE,5.8,-,0.13,Snow,Light Snow,20,2012-11-27 17:55:00
12:15 PM,15.8,14.0,93,30.11,1.8,North,8.1,-,0.05,Snow,Light Snow,350,2012-11-27 18:15:00
12:35 PM,14.0,14.0,100,30.10,6.0,North,10.4,-,0.08,Snow,Light Snow,350,2012-11-27 18:35:00
12:55 PM,14.0,10.4,86,30.11,10.0,North,13.8,-,0.09,Snow,Light Snow,350,2012-11-27 18:55:00
1:15 PM,12.2,10.4,92,30.11,10.0,NNW,11.5,-,N/A,,Scattered Clouds,340,2012-11-27 19:15:00
1:35 PM,14.0,10.4,86,30.11,10.0,NNW,12.7,-,N/A,,Overcast,340,2012-11-27 19:35:00
2:15 PM,14.0,10.4,86,30.10,10.0,NNW,11.5,-,N/A,,Overcast,340,2012-11-27 20:15:00
2:35 PM,14.0,10.4,86,30.10,10.0,NNW,12.7,-,N/A,,Overcast,340,2012-11-27 20:35:00
2:55 PM,15.8,12.2,86,30.10,10.0,NNW,13.8,-,N/A,Snow,Light Snow,340,2012-11-27 20:55:00
3:15 PM,14.0,12.2,93,30.11,10.0,NNW,15.0,-,N/A,Snow,Light Snow,340,2012-11-27 21:15:00
3:35 PM,14.0,10.4,86,30.12,10.0,NNW,12.7,-,N/A,,Partly Cloudy,340,2012-11-27 21:35:00
3:55 PM,14.0,10.4,86,30.12,10.0,North,9.2,-,N/A,,Mostly Cloudy,360,2012-11-27 21:55:00
4:15 PM,10.4,8.6,92,30.13,10.0,North,8.1,-,N/A,,Scattered Clouds,360,2012-11-27 22:15:00
4:35 PM,12.2,10.4,92,30.13,10.0,NNW,8.1,-,N/A,,Mostly Cloudy,330,2012-11-27 22:35:00
4:55 PM,14.0,12.2,93,30.14,10.0,NW,9.2,-,N/A,,Overcast,310,2012-11-27 22:55:00
5:15 PM,15.8,14.0,93,30.14,10.0,NW,10.4,-,N/A,Snow,Light Snow,310,2012-11-27 23:15:00
5:55 PM,14.0,12.2,93,30.15,10.0,NNW,12.7,-,N/A,,Overcast,340,2012-11-27 23:55:00
6:15 PM,14.0,12.2,93,30.15,10.0,NW,11.5,-,N/A,,Overcast,320,2012-11-28 00:15:00
6:35 PM,14.0,14.0,100,30.16,10.0,NW,13.8,-,N/A,,Overcast,310,2012-11-28 00:35:00
6:55 PM,14.0,14.0,100,30.16,10.0,WNW,10.4,-,N/A,,Overcast,300,2012-11-28 00:55:00
7:15 PM,14.0,14.0,100,30.16,10.0,WNW,10.4,-,N/A,,Overcast,290,2012-11-28 01:15:00
7:35 PM,14.0,14.0,100,30.16,10.0,NW,6.9,-,N/A,,Overcast,310,2012-11-28 01:35:00
7:55 PM,14.0,12.2,93,30.17,10.0,NW,9.2,-,N/A,,Overcast,310,2012-11-28 01:55:00
8:15 PM,14.0,10.4,86,30.17,10.0,NW,9.2,-,N/A,,Overcast,310,2012-11-28 02:15:00
8:35 PM,14.0,12.2,93,30.18,10.0,WNW,9.2,-,N/A,,Overcast,290,2012-11-28 02:35:00
8:55 PM,12.2,10.4,92,30.18,10.0,WNW,6.9,-,N/A,,Mostly Cloudy,290,2012-11-28 02:55:00
9:15 PM,10.4,8.6,92,30.17,10.0,West,4.6,-,N/A,,Partly Cloudy,260,2012-11-28 03:15:00
9:35 PM,8.6,8.6,100,30.18,10.0,WSW,4.6,-,N/A,,Partly Cloudy,240,2012-11-28 03:35:00
9:55 PM,6.8,6.8,100,30.18,10.0,WSW,4.6,-,N/A,,Partly Cloudy,250,2012-11-28 03:55:00
10:15 PM,5.0,5.0,100,30.17,10.0,WSW,3.5,-,N/A,,Clear,250,2012-11-28 04:15:00
10:55 PM,1.4,1.4,100,30.18,10.0,SW,3.5,-,N/A,,Mostly Cloudy,230,2012-11-28 04:55:00
11:15 PM,1.4,1.4,100,30.18,10.0,South,5.8,-,N/A,,Partly Cloudy,190,2012-11-28 05:15:00
11:55 PM,1.4,1.4,100,30.18,10.0,SSW,6.9,-,N/A,,Clear,200,2012-11-28 05:55:00